This is the latest recevied weather packets stored in our database for station/object K1RFS. If no packets are shown the sender has not sent any weather packets the latest 10 day(s).
| Time | Temp. | Humidity | Pressure | Rain* | Wind** | Luminosity | Snow |
|---|---|---|---|---|---|---|---|
| 1787673093 | 25.56° C | 40% | 1010.2 hPa | 0 mm | - | 34 W/m² | - |
| 1787672788 | 25.56° C | 41% | 1010.1 hPa | 0 mm | - | 34 W/m² | - |
| 1787672484 | 25.56° C | 41% | 1010.4 hPa | 0 mm | - | 33 W/m² | - |
| 1787672183 | 25.56° C | 41% | 1010.2 hPa | 0 mm | - | 33 W/m² | - |
| 1787671878 | 25.56° C | 41% | 1010.3 hPa | 0 mm | - | 32 W/m² | - |
| 1787671574 | 25.56° C | 39% | 1010.2 hPa | 0 mm | - | 31 W/m² | - |
| 1787671274 | 25° C | 41% | 1010.3 hPa | 0 mm | - | 31 W/m² | - |
| 1787670968 | 24.44° C | 44% | 1010.1 hPa | 0 mm | - | 30 W/m² | - |
| 1787670664 | 24.44° C | 45% | 1010.2 hPa | 0 mm | - | 29 W/m² | - |
| 1787670363 | 23.89° C | 46% | 1010.2 hPa | 0 mm | - | 29 W/m² | - |
| 1787670058 | 23.33° C | 48% | 1010.2 hPa | 0 mm | - | 28 W/m² | - |
| 1787669754 | 23.33° C | 48% | 1010.2 hPa | 0 mm | - | 28 W/m² | - |
| 1787669453 | 22.78° C | 48% | 1010.2 hPa | 0 mm | - | 27 W/m² | - |
| 1787669149 | 22.78° C | 47% | 1010.2 hPa | 0 mm | - | 26 W/m² | - |
| 1787668845 | 22.22° C | 47% | 1010.1 hPa | 0 mm | - | 26 W/m² | - |
| 1787668542 | 22.22° C | 47% | 1010.1 hPa | 0 mm | - | 25 W/m² | - |
| 1787668242 | 22.22° C | 49% | 1010 hPa | 0 mm | - | 25 W/m² | - |
| 1787667942 | 21.67° C | 50% | 1009.8 hPa | 0 mm | - | 24 W/m² | - |
| 1787667636 | 21.11° C | 51% | 1010 hPa | 0 mm | - | 24 W/m² | - |
| 1787667332 | 20.56° C | 52% | 1010.2 hPa | 0 mm | - | 23 W/m² | - |
| 1787667032 | 20.56° C | 52% | 1010.1 hPa | 0 mm | - | 23 W/m² | - |
| 1787666728 | 20° C | 53% | 1009.8 hPa | 0 mm | - | 22 W/m² | - |
| 1787666427 | 20° C | 55% | 1010 hPa | 0 mm | - | 21 W/m² | - |
| 1787666123 | 19.44° C | 54% | 1009.8 hPa | 0 mm | - | 20 W/m² | - |
| 1787665818 | 19.44° C | 55% | 1009.7 hPa | 0 mm | - | 19 W/m² | - |
* Rain latest hour (hover to see other rain measurements)
** Current wind speed in m/s (hover to see current wind gust speed)